FW5858 Weather Reports


time (UTC)temp
F
wind
direction
speed
knots
gust
knots
rain 1hr
in
rain 24hr
in
rain mn
in
humidity
%
barometer
mb
20260503010006 43 95 0.0 0.0 0.00 0.01 0.01 65 1017.3
20260503004512 44 95 0.0 1.7 0.00 0.01 0.01 60 1017.3
20260503003015 44 95 0.0 0.0 0.00 0.01 0.01 65 1017.3
20260503001523 44 95 0.0 0.0 0.00 0.01 0.01 58 1017.1
20260503000004 45 95 0.0 0.0 0.00 0.01 0.01 57 1017.0
20260502234528 45 99 0.0 1.7 0.00 0.01 0.01 57 1017.0
20260502233026 45 273 0.0 0.9 0.00 0.01 0.01 55 1016.9
20260502231520 45 273 0.0 1.7 0.00 0.01 0.01 55 1016.9
20260502230029 45 309 0.0 0.9 0.00 0.01 0.01 56 1016.9
20260502224507 45 306 0.0 1.7 0.00 0.01 0.01 53 1017.0
20260502223014 46 298 0.9 1.7 0.00 0.01 0.01 53 1016.8
20260502221519 46 304 0.9 1.7 0.00 0.01 0.01 50 1016.9
20260502220027 46 298 0.9 1.7 0.00 0.01 0.01 52 1016.8
20260502214526 46 304 0.9 2.6 0.00 0.01 0.01 53 1016.8
20260502213012 47 303 0.0 2.6 0.00 0.01 0.01 54 1016.7
20260502211517 47 312 0.9 1.7 0.00 0.01 0.01 53 1016.7
20260502210023 47 304 0.9 3.5 0.00 0.01 0.01 51 1016.7
20260502204529 48 173 0.0 2.6 0.00 0.01 0.01 47 1016.6
20260502203010 49 304 0.9 3.5 0.00 0.01 0.01 50 1016.6
20260502201503 48 302 0.0 1.7 0.00 0.01 0.01 53 1016.7
20260502200003 47 139 2.6 108.6 0.00 0.01 0.01 54 1016.9
20260502194504 47 298 0.0 2.6 0.00 0.01 0.01 54 1017.0
20260502193007 47 271 0.9 3.5 0.00 0.01 0.01 49 1017.0
20260502191511 47 310 0.9 5.2 0.00 0.01 0.01 49 1017.1
20260502190002 48 295 0.9 7.8 0.00 0.01 0.01 50 1017.2
20260502184508 48 304 0.0 2.6 0.00 0.01 0.01 53 1017.3
20260502183016 47 301 0.0 3.5 0.00 0.01 0.01 54 1017.2
20260502181516 48 308 0.9 2.6 0.00 0.01 0.01 54 1017.3
20260502163010 46 297 0.9 1.7 0.00 0.01 0.01 60 1017.6
20260502161506 47 296 0.9 3.5 0.00 0.01 0.01 59 1017.7
20260502151530 46 310 0.9 3.5 0.00 0.01 0.01 60 1017.6
20260502123022 38 136 0.0 1.7 0.00 0.00 0.00 77 1017.3
20260502121523 36 311 0.0 1.7 0.00 0.00 0.00 78 1017.0
20260502114510 35 306 0.0 1.7 0.00 0.00 0.00 80 1016.8
20260502113024 34 311 0.0 1.7 0.00 0.00 0.00 82 1016.8
20260502111521 33 317 0.0 1.7 0.00 0.00 0.00 84 1016.7
20260502110026 33 321 0.0 0.0 0.00 0.00 0.00 87 1016.6
20260502104525 33 321 0.0 0.0 0.00 0.00 0.00 86 1016.7
20260502103013 33 321 0.0 0.0 0.00 0.00 0.00 85 1016.6
20260502101529 34 321 0.0 1.7 0.00 0.00 0.00 84 1016.6
20260502091513 33 321 0.0 1.7 0.00 0.00 0.00 88 1016.6
20260502070040 35 87 0.0 0.0 0.00 0.00 0.00 89 1016.4
20260502064504 35 87 0.0 0.0 0.00 0.00 0.00 89 1016.5
20260502063013 35 87 0.0 0.0 0.00 0.00 0.00 89 1016.6
20260502061507 36 87 0.0 0.0 0.00 0.00 0.00 89 1016.5
20260502060012 36 87 0.0 0.0 0.00 0.00 0.00 90 1016.6
20260502054517 37 86 0.0 0.0 0.00 0.00 0.00 90 1016.7
20260502053004 37 87 0.0 0.0 0.00 0.00 0.00 91 1016.9
20260502051508 37 86 0.0 0.0 0.00 0.00 0.00 91 1016.8
20260502050011 37 87 0.0 0.0 0.00 0.00 0.00 90 1016.9
20260502044516 37 87 0.0 0.0 0.00 0.00 0.00 90 1016.9
20260502043022 37 86 0.0 0.0 0.00 0.00 0.00 90 1016.8
20260502041503 37 87 0.0 0.0 0.00 0.00 0.00 90 1016.9
20260502040009 37 87 0.0 0.0 0.00 0.00 0.00 89 1016.8
20260502034516 38 87 0.0 0.0 0.00 0.00 0.00 89 1016.7
20260502033022 38 87 0.0 0.0 0.00 0.00 0.00 88 1016.8
20260502031524 38 87 0.0 0.0 0.00 0.00 0.00 88 1016.8
20260502030007 39 87 0.0 0.0 0.00 0.00 0.00 88 1016.7
20260502024510 39 87 0.0 0.0 0.00 0.00 0.00 88 1016.7
20260502023018 39 86 0.0 0.0 0.00 0.00 0.00 87 1016.7
20260502021522 40 87 0.0 0.0 0.00 0.00 0.00 86 1016.6
20260502020026 41 87 0.0 0.0 0.00 0.00 0.00 86 1016.4
20260502014522 41 87 0.0 0.0 0.00 0.00 0.00 85 1016.2
20260502013012 42 87 0.0 0.0 0.00 0.00 0.00 83 1016.1
20260502011518 43 87 0.0 1.7 0.00 0.00 0.00 81 1015.8